CZ-3B R/B (44867 NORAD) Tracking and Keplerian Element Data

This shows tracking and keplerian element data for the satellite.

Feedback or suggestion? Click here.




ElementValue
Catalog44867
NameCZ-3B R/B
Epoch Orbit129
Epoch Day14.53607802
Epoch Year2020
RAAN125.9931
Inclination55.0242
Eccentricity0.5789219
Argument of Perigee179.635
Mean Anonmoly181.2491
Mean Motion4.44300349
Decay Rate0.00037625
L11 44867U 19090D 20014.53607802 .00037625 00000-0 11630-2 0 9992
L22 44867 55.0242 125.9931 5789219 179.6350 181.2491 4.44300349 1290

Live tracking and technical data element details for CZ-3B R/B (NORAD 44867). CZ-3B R/B can be tracked NOW for your location showing map with azimuth and elevation plus other details from your city location.

Track the satellite on the map from your city or location and see movement details for azimuth, elevation, latitude, longitude, range, height, and movement on the map or in text.







IsCatalogInMostPopularTable: catalog: 44867, numindb: 9
Update: records affected: 1



GetName: 44867 CZ-3B R/B

Hit Count: updated at: Fri, 24 Jan 2020 10:38:17 GMT